Simultaneous Nadir Overpasses (SNOs) Predictions

Prediction of SNOs between NPP and GCOM-C Satellite Orbit:

Table of predicted SNOs for the next 14.0 days since TLE Epoch: 8/31/2024
Index Date (NPP) Time (NPP) Lat,Lon (NPP) SZA (NPP ) Date (GCOM-C) Time (GCOM-C) Lat,Lon (GCOM-C) SZA (GCOM-C ) Distance(km) Time Diff (sec)
1 09/12/2024 16:03:20 69.48, -63.71 65.57 09/12/2024 16:04:31 69.45, -62.80 65.54 35.71 71
2 09/12/2024 16:53:57 -69.10, 104.13 114.80 09/12/2024 16:55:07 -69.13, 104.13 114.78 3.20 70
3 09/12/2024 17:44:42 69.06, -88.50 65.18 09/12/2024 17:45:35 69.07, -88.57 65.18 2.87 53
4 09/12/2024 18:35:26 -69.06, 78.82 114.82 09/12/2024 18:36:05 -69.07, 78.80 114.81 0.83 39
5 09/12/2024 19:26:11 69.02,-113.82 65.16 09/12/2024 19:26:32 69.05,-113.83 65.19 3.48 21
6 09/12/2024 20:16:55 -69.02, 53.50 114.83 09/12/2024 20:17:03 -69.00, 53.48 114.85 2.18 8
7 09/12/2024 21:07:40 68.98,-139.13 65.14 09/12/2024 21:07:30 68.99,-139.15 65.15 1.14 10
8 09/12/2024 21:58:24 -68.98, 28.19 114.85 09/12/2024 21:58:00 -68.99, 28.23 114.84 2.14 24
9 09/12/2024 22:49:09 68.94,-164.45 65.13 09/12/2024 22:48:28 68.92,-164.48 65.11 2.10 41
10 09/12/2024 23:39:53 -68.94, 2.87 114.87 09/12/2024 23:38:58 -68.92, 2.90 114.88 1.72 55
11 09/13/2024 00:30:38 68.90, 170.23 65.11 09/13/2024 00:29:25 68.91, 170.27 65.13 2.14 73
12 09/13/2024 01:21:14 -68.47, -21.88 115.31 09/13/2024 01:20:03 -68.48, -22.91 115.29 42.39 71



Historial Predications of SNOs between NPP and GCOM-C
